Radiation Dose at Monitoring Post of Fukushima Daini Nuclear Power Station
Date,Time,MP-1(microSv/h),MP-2(microSv/h),MP-3(microSv/h),MP-4(microSv/h),MP-5(microSv/h),MP-6(microSv/h),MP-7(microSv/h),Wind Direction,Wind Velocity(m/s),Rain
2016/11/09,00:00,0.425,0.249,0.437,0.398,0.374,0.208,0.179,north-northwest,4.7,Yes
2016/11/09,00:10,0.421,0.248,0.436,0.397,0.374,0.208,0.179,north-northwest,4.5,No
2016/11/09,00:20,0.422,0.249,0.434,0.396,0.374,0.206,0.179,north-northwest,6.4,No
2016/11/09,00:30,0.421,0.247,0.435,0.397,0.371,0.207,0.177,north-northwest,6.2,Yes
2016/11/09,00:40,0.418,0.246,0.432,0.394,0.372,0.206,0.177,north-northwest,8.5,No
2016/11/09,00:50,0.421,0.246,0.433,0.394,0.369,0.205,0.176,north-northwest,8.1,No
2016/11/09,01:00,0.420,0.244,0.432,0.395,0.370,0.202,0.176,north,7.7,No
2016/11/09,01:10,0.422,0.244,0.431,0.392,0.370,0.203,0.175,north-northwest,6.8,No
2016/11/09,01:20,0.420,0.245,0.431,0.394,0.367,0.203,0.176,north,5.1,No
2016/11/09,01:30,0.418,0.244,0.431,0.393,0.370,0.202,0.175,north-northwest,6.2,No
2016/11/09,01:40,0.421,0.244,0.432,0.391,0.368,0.203,0.175,north,6.7,No
2016/11/09,01:50,0.419,0.244,0.433,0.393,0.370,0.202,0.175,north-northwest,5.9,No
2016/11/09,02:00,0.422,0.245,0.430,0.391,0.368,0.203,0.176,north-northwest,5.8,No
2016/11/09,02:10,0.419,0.245,0.434,0.393,0.365,0.203,0.174,north-northwest,3.6,No
2016/11/09,02:20,0.419,0.244,0.430,0.393,0.369,0.202,0.173,north-northwest,3.3,No
2016/11/09,02:30,0.419,0.243,0.431,0.392,0.366,0.202,0.175,north-northwest,5.4,No
2016/11/09,02:40,0.418,0.244,0.430,0.393,0.368,0.202,0.174,north-northwest,3.5,No
2016/11/09,02:50,0.419,0.244,0.430,0.391,0.368,0.202,0.173,north-northwest,4.4,No
2016/11/09,03:00,0.417,0.243,0.432,0.391,0.366,0.202,0.173,north-northwest,5.4,No
2016/11/09,03:10,0.419,0.243,0.430,0.389,0.370,0.202,0.174,north-northwest,5.4,No
2016/11/09,03:20,0.420,0.243,0.432,0.391,0.368,0.202,0.174,north,3.5,No
2016/11/09,03:30,0.417,0.244,0.429,0.393,0.367,0.202,0.173,north,5.2,No
2016/11/09,03:40,0.420,0.243,0.429,0.392,0.370,0.202,0.173,northwest,3.2,No
2016/11/09,03:50,0.417,0.245,0.432,0.392,0.366,0.200,0.174,north-northwest,4.2,No
2016/11/09,04:00,0.418,0.242,0.429,0.393,0.368,0.201,0.173,north-northwest,7.8,No
2016/11/09,04:10,0.419,0.243,0.430,0.391,0.367,0.202,0.174,north-northwest,8.2,No
2016/11/09,04:20,0.416,0.243,0.431,0.392,0.367,0.202,0.174,north,8.3,No
2016/11/09,04:30,0.419,0.242,0.429,0.392,0.370,0.202,0.174,north-northwest,9.0,No
2016/11/09,04:40,0.419,0.244,0.432,0.392,0.369,0.200,0.174,northwest,8.7,No
2016/11/09,04:50,0.418,0.244,0.429,0.394,0.367,0.202,0.173,north-northwest,9.4,No
2016/11/09,05:00,0.420,0.242,0.428,0.391,0.370,0.202,0.174,north-northwest,5.6,No
2016/11/09,05:10,0.419,0.242,0.432,0.393,0.368,0.202,0.174,north-northwest,3.4,No
2016/11/09,05:20,0.417,0.243,0.432,0.394,0.366,0.202,0.175,northwest,6.1,No
2016/11/09,05:30,0.421,0.244,0.432,0.393,0.371,0.202,0.175,north-northwest,6.8,No
2016/11/09,05:40,0.418,0.244,0.433,0.393,0.367,0.202,0.175,north-northeast,4.7,No
2016/11/09,05:50,0.418,0.242,0.429,0.393,0.367,0.202,0.174,north-northwest,7.7,No
2016/11/09,06:00,0.419,0.244,0.431,0.390,0.369,0.202,0.175,north-northwest,7.5,No
2016/11/09,06:10,0.417,0.243,0.433,0.394,0.368,0.201,0.174,north,3.9,No
2016/11/09,06:20,0.420,0.244,0.428,0.392,0.368,0.202,0.173,north-northwest,4.8,No
2016/11/09,06:30,0.419,0.243,0.433,0.391,0.369,0.203,0.175,north,8.6,No
2016/11/09,06:40,0.418,0.244,0.433,0.393,0.368,0.201,0.174,north-northwest,7.3,No
2016/11/09,06:50,0.418,0.243,0.428,0.391,0.368,0.202,0.174,north-northwest,10.0,No
2016/11/09,07:00,0.420,0.243,0.431,0.390,0.368,0.202,0.174,north-northwest,11.7,No
2016/11/09,07:10,0.419,0.242,0.433,0.392,0.367,0.202,0.174,northwest,10.8,No
2016/11/09,07:20,0.418,0.242,0.431,0.391,0.369,0.202,0.175,northwest,13.1,No
2016/11/09,07:30,0.419,0.242,0.431,0.391,0.369,0.201,0.175,west-northwest,11.4,No
2016/11/09,07:40,0.417,0.243,0.433,0.393,0.370,0.202,0.173,northwest,14.1,No
2016/11/09,07:50,0.417,0.244,0.431,0.392,0.369,0.203,0.173,west-northwest,13.1,No
2016/11/09,08:00,0.418,0.243,0.433,0.392,0.368,0.202,0.174,west-northwest,12.8,No
2016/11/09,08:10,0.417,0.244,0.433,0.393,0.370,0.202,0.174,northwest,15.8,No
2016/11/09,08:20,0.418,0.244,0.432,0.392,0.368,0.202,0.175,west-northwest,11.7,No
2016/11/09,08:30,0.420,0.245,0.431,0.391,0.367,0.202,0.174,west-northwest,10.7,No
2016/11/09,08:40,0.419,0.243,0.432,0.394,0.369,0.201,0.172,northwest,9.1,No
2016/11/09,08:50,0.419,0.243,0.430,0.392,0.369,0.201,0.173,northwest,9.0,No
2016/11/09,09:00,0.419,0.242,0.430,0.391,0.369,0.202,0.173,northwest,7.3,No
2016/11/09,09:10,0.419,0.243,0.434,0.392,0.369,0.203,0.173,northwest,7.5,No
2016/11/09,09:20,0.418,0.243,0.431,0.389,0.368,0.202,0.172,northwest,9.2,No
2016/11/09,09:30,0.418,0.243,0.430,0.392,0.366,0.202,0.173,north-northwest,8.3,No
2016/11/09,09:40,0.418,0.242,0.433,0.388,0.367,0.201,0.173,north-northwest,6.4,No
2016/11/09,09:50,0.415,0.244,0.430,0.391,0.368,0.202,0.173,north-northwest,6.4,No
2016/11/09,10:00,0.418,0.241,0.429,0.389,0.367,0.202,0.173,northwest,4.7,No
2016/11/09,10:10,0.418,0.243,0.432,0.392,0.369,0.202,0.174,northwest,7.3,No
2016/11/09,10:20,0.418,0.243,0.430,0.392,0.366,0.202,0.174,west-northwest,7.5,No
2016/11/09,10:30,0.416,0.242,0.429,0.391,0.367,0.200,0.173,northwest,7.0,No
2016/11/09,10:40,0.417,0.243,0.432,0.389,0.365,0.202,0.174,west-northwest,7.7,No
2016/11/09,10:50,0.417,0.242,0.427,0.391,0.369,0.201,0.172,north-northwest,10.7,No
2016/11/09,11:00,0.416,0.244,0.429,0.390,0.367,0.202,0.174,northwest,9.9,No
2016/11/09,11:10,0.418,0.243,0.432,0.391,0.366,0.202,0.173,north-northwest,3.9,No
2016/11/09,11:20,0.417,0.242,0.430,0.390,0.367,0.201,0.174,northwest,11.0,No
2016/11/09,11:30,0.422,0.244,0.433,0.393,0.365,0.202,0.173,northwest,10.5,No
2016/11/09,11:40,0.419,0.243,0.431,0.389,0.367,0.202,0.174,northwest,9.8,No
2016/11/09,11:50,0.418,0.242,0.429,0.392,0.366,0.202,0.172,north-northwest,10.7,No
2016/11/09,12:00,0.419,0.244,0.432,0.389,0.368,0.202,0.173,west,8.8,No
2016/11/09,12:10,0.416,0.243,0.428,0.392,0.367,0.202,0.174,west-northwest,8.6,No
2016/11/09,12:20,0.419,0.243,0.430,0.388,0.368,0.203,0.173,west-northwest,7.9,No
2016/11/09,12:30,0.417,0.243,0.427,0.393,0.367,0.202,0.175,west-northwest,9.0,No
2016/11/09,12:40,0.419,0.244,0.430,0.390,0.367,0.203,0.173,west,10.5,No
2016/11/09,12:50,0.419,0.243,0.428,0.392,0.367,0.203,0.174,west,9.8,No
2016/11/09,13:00,0.418,0.244,0.429,0.392,0.367,0.202,0.173,west-northwest,7.8,No
2016/11/09,13:10,0.419,0.244,0.427,0.390,0.368,0.203,0.174,west,8.4,No
2016/11/09,13:20,0.420,0.243,0.431,0.392,0.365,0.202,0.172,west-northwest,5.3,No
2016/11/09,13:30,0.418,0.244,0.429,0.388,0.368,0.203,0.173,west-northwest,7.9,No
2016/11/09,13:40,0.419,0.244,0.431,0.392,0.364,0.201,0.172,northwest,4.6,No
2016/11/09,13:50,0.417,0.243,0.430,0.390,0.368,0.202,0.174,northwest,5.1,No
2016/11/09,14:00,0.420,0.244,0.434,0.393,0.368,0.202,0.174,northwest,4.8,No
2016/11/09,14:10,0.419,0.244,0.431,0.391,0.367,0.202,0.173,northwest,4.9,No
2016/11/09,14:20,0.420,0.243,0.432,0.395,0.369,0.201,0.174,northwest,6.3,No
2016/11/09,14:30,0.419,0.243,0.434,0.393,0.367,0.202,0.174,west-northwest,5.3,No
2016/11/09,14:40,0.419,0.244,0.431,0.394,0.368,0.200,0.174,west,6.8,No
2016/11/09,14:50,0.418,0.243,0.434,0.393,0.368,0.202,0.174,north-northwest,7.0,No
2016/11/09,15:00,0.420,0.244,0.430,0.391,0.367,0.201,0.173,north,2.8,No
2016/11/09,15:10,0.419,0.243,0.433,0.394,0.370,0.202,0.174,west,2.6,No
2016/11/09,15:20,0.423,0.242,0.434,0.392,0.368,0.201,0.175,west-northwest,3.7,No
2016/11/09,15:30,0.419,0.244,0.430,0.394,0.367,0.202,0.175,west-northwest,1.9,No
2016/11/09,15:40,0.419,0.244,0.433,0.394,0.369,0.202,0.175,northwest,1.3,No
2016/11/09,15:50,0.421,0.243,0.432,0.393,0.369,0.202,0.175,north,1.1,No
2016/11/09,16:00,0.420,0.244,0.432,0.394,0.369,0.202,0.175,north-northwest,1.1,No
2016/11/09,16:10,0.420,0.245,0.434,0.393,0.371,0.201,0.176,northwest,6.6,No
2016/11/09,16:20,0.420,0.244,0.432,0.394,0.370,0.202,0.175,west-northwest,7.6,No
2016/11/09,16:30,0.420,0.244,0.433,0.395,0.368,0.202,0.175,west-northwest,10.4,No
2016/11/09,16:40,0.420,0.244,0.435,0.394,0.368,0.204,0.174,northwest,8.7,No
2016/11/09,16:50,0.421,0.243,0.433,0.394,0.369,0.203,0.174,northwest,7.7,No
2016/11/09,17:00,0.420,0.244,0.432,0.395,0.369,0.202,0.175,west-northwest,6.7,No
2016/11/09,17:10,0.420,0.244,0.433,0.394,0.368,0.201,0.175,northwest,6.6,No
2016/11/09,17:20,0.420,0.244,0.432,0.393,0.370,0.202,0.175,west-northwest,5.9,No
2016/11/09,17:30,0.421,0.244,0.431,0.394,0.370,0.202,0.173,northwest,7.9,No
2016/11/09,17:40,0.419,0.245,0.433,0.395,0.368,0.202,0.175,west-northwest,7.0,No
2016/11/09,17:50,0.418,0.244,0.433,0.393,0.369,0.203,0.174,west-northwest,6.2,No
2016/11/09,18:00,0.421,0.244,0.432,0.393,0.369,0.203,0.174,west-northwest,5.8,No
2016/11/09,18:10,0.420,0.243,0.432,0.394,0.369,0.203,0.175,northwest,4.7,No
2016/11/09,18:20,0.419,0.244,0.433,0.393,0.367,0.202,0.174,northwest,3.3,No
2016/11/09,18:30,0.421,0.244,0.432,0.391,0.367,0.203,0.175,north,0.7,No
2016/11/09,18:40,0.422,0.244,0.432,0.393,0.368,0.203,0.176,northwest,1.1,No
2016/11/09,18:50,0.419,0.244,0.433,0.393,0.367,0.201,0.175,northwest,0.9,No
2016/11/09,19:00,0.420,0.244,0.430,0.393,0.369,0.202,0.175,east-southeast,0.5,No
2016/11/09,19:10,0.419,0.244,0.430,0.394,0.367,0.203,0.175,south,2.0,No
2016/11/09,19:20,0.419,0.244,0.434,0.395,0.367,0.203,0.174,southwest,2.8,No
2016/11/09,19:30,0.419,0.244,0.433,0.394,0.368,0.203,0.173,northeast,1.4,No
2016/11/09,19:40,0.421,0.244,0.432,0.393,0.367,0.202,0.174,southwest,1.1,No
2016/11/09,19:50,0.421,0.244,0.432,0.395,0.368,0.202,0.175,-,CALM,No
2016/11/09,20:00,0.419,0.243,0.434,0.394,0.369,0.203,0.176,north,1.7,No
2016/11/09,20:10,0.420,0.244,0.434,0.392,0.369,0.204,0.174,north,2.2,No
2016/11/09,20:20,0.418,0.243,0.433,0.393,0.368,0.202,0.174,north,2.1,No
2016/11/09,20:30,0.419,0.244,0.434,0.395,0.368,0.203,0.175,north,3.1,No
2016/11/09,20:40,0.419,0.243,0.432,0.392,0.368,0.203,0.174,north,1.1,No
2016/11/09,20:50,0.421,0.243,0.433,0.393,0.368,0.203,0.174,northeast,1.5,No
2016/11/09,21:00,0.419,0.243,0.432,0.395,0.368,0.203,0.175,northeast,2.8,No
2016/11/09,21:10,0.419,0.244,0.433,0.394,0.367,0.204,0.175,northeast,1.5,No
2016/11/09,21:20,0.420,0.244,0.433,0.393,0.369,0.202,0.175,north-northeast,2.2,No
2016/11/09,21:30,0.421,0.243,0.433,0.394,0.368,0.202,0.175,northeast,2.2,No
2016/11/09,21:40,0.421,0.243,0.433,0.393,0.368,0.202,0.175,east-northeast,1.9,No
2016/11/09,21:50,0.420,0.244,0.434,0.393,0.367,0.203,0.175,east-northeast,1.7,No
2016/11/09,22:00,0.419,0.243,0.432,0.393,0.368,0.203,0.175,east,1.6,No
2016/11/09,22:10,0.420,0.244,0.431,0.393,0.368,0.204,0.174,east-southeast,1.9,No
2016/11/09,22:20,0.420,0.244,0.434,0.393,0.368,0.203,0.174,-,CALM,No
2016/11/09,22:30,0.419,0.244,0.434,0.393,0.367,0.202,0.174,west-southwest,2.2,No
2016/11/09,22:40,0.419,0.245,0.432,0.393,0.367,0.204,0.175,north-northeast,1.1,No
2016/11/09,22:50,0.421,0.244,0.432,0.394,0.366,0.203,0.175,-,CALM,No
2016/11/09,23:00,0.419,0.244,0.434,0.394,0.367,0.202,0.173,southwest,1.8,No
2016/11/09,23:10,0.421,0.244,0.434,0.394,0.365,0.204,0.175,west,1.9,No
2016/11/09,23:20,0.420,0.244,0.433,0.393,0.366,0.203,0.174,west-northwest,1.8,No
2016/11/09,23:30,0.420,0.245,0.432,0.395,0.369,0.203,0.175,west,3.4,No
2016/11/09,23:40,0.418,0.243,0.433,0.395,0.368,0.203,0.174,west,3.7,No
2016/11/09,23:50,0.421,0.244,0.433,0.393,0.366,0.203,0.174,west-northwest,3.2,No
